星链-35571(STARLINK-35571)

导读

STARLINK-35571是美国SpaceX星链星座的成员,于2025年10月19日发射,归属星链互联网星座组网,主要为全球提供低延迟、高速率的卫星互联网接入服务。该星遵循Star链星座部署计划,运行在近地轨道,是Starlink大规模卫星组网进程中的一颗低轨通信卫星,进一步完善星链的全球覆盖能力。

Basic Information
目录编号:
66089
目录名称:
STARLINK-35571
国际标识:
2025-236D
轨道中心:
EARTH
卫星名称:
星链-35571
卫星全名:
星链-35571(STARLINK-35571)
卫星状态:
在轨 (已飞行320 天)
发射日期:
2025-10-19 UTC
国别 :
美国 (US)
星等 :
--
Orbit Information
数据来源 国际轨道数据
星历时间: 2026-09-04T04:03:02+0800
10小时前
查看轨道信息
半长轴: 6840.822km
偏心率: 0.0001233
轨道倾角: 53.161°
近地点辐角 76.744°
升交点赤经 355.406°
平近点角 283.370°
近地点: 461.841km
远地点: 463.529km
周期: 93.847分钟
每日圈数: 15.344063
Detailed Information
固有亮度:
5
最大亮度:
2.5
卫星平台:
Starlink V1.0
覆盖范围:
全球
运营商:
太空探索技术公司
运营商所在国:
美国
制造商(研发单位):
太空探索技术公司
制造商所在国:
美国
使用方式:
暂无
Satellite Introduction
Starlink 计划是 SpaceX 推出的全球卫星互联网项目,通过发射低轨道卫星,为全球尤其是偏远地区提供高速、低延迟的互联网服务。自 2019 年起,Starlink 已部署数千颗卫星,旨在缩小全球数字鸿沟,推动互联网普及。该项目还为军事、航空等行业提供通信支持,带来广泛经济效益。
2D Orbit Map
3D Orbit Map
Orbit Altitude Analysis Chart
Orbit Inclination Analysis Chart
Orbit Comprehensive Analysis Chart
View Comprehensive Chart
Conjunction Data List
Event ID Objects TCA Miss Dist (km) Collision Risk Probability Collision Risk Index (CRI) Action
CDM_260904-125704-972706-608921
2026-09-04T
12:57:17+0000
0.439 km
远距离
1.811973E-4 高风险 0.8
CDM_260904-024704-972706-608921
2026-09-04T
02:47:39+0000
1.169 km
极远距离
9.53933E-6 低风险 0.55
CDM_260905-115906-281006-608921
2026-09-05T
11:59:59+0000
1.585 km
极远距离
4.848391E-6 低风险 0.49
CDM_260904-042104-972706-608921
2026-09-04T
04:21:26+0000
1.754 km
极远距离
2.583682E-6 低风险 0.43
CDM_260829-174904-972706-608921
2026-08-29T
17:49:38+0000
1.795 km
极远距离
2.420979E-6 低风险 0.43
CDM_260904-163605-406206-608922
2026-09-04T
16:36:20+0000
2.765 km
极远距离
1.145233E-6 低风险 0.36